Location: Gorze? G�rny
(49.8500°N, 19.5000°E)
Time: 03:53:32
(UTC+00:00)

USA 306 - Pass Details

Date: 13 May 2021
Orbit: 565 x 575 km, 54.0° (Epoch: 11 May)

Event Time Altitude Azimuth Distance (km) Brightness Sun altitude
Rises 19:05:20 0° 295° (WNW) 2,772 8.2 -7.0°
Reaches altitude 10° 19:07:35 10° 294° (WNW) 1,874 7.0 -7.3°
Maximum altitude 19:11:51 79° 209° (SSW) 585 2.9 -7.8°
Enters shadow 19:16:02 10° 122° (ESE) 1,842 4.8 -8.3°
